Location: Antioch
(38.0049°N, 121.8058°W)
Time: 05:37:13
(UTC+00:00)

Cosmos 1605 Rocket - Pass Details

Date: 11 February 2026
Orbit: 943 x 1005 km, 82.9° (Epoch: 5 March)

Event Time Altitude Azimuth Distance (km) Brightness Sun altitude
Rises 13:37:35 0° 189° (S) 3,713 7.0 -17.1°
Reaches altitude 10° 13:40:07 10° 190° (S) 2,769 6.3 -16.6°
Maximum altitude 13:46:30 78° 277° (W) 1,029 4.0 -15.3°
Drops below altitude 10° 13:52:54 10° 4° (N) 2,778 6.4 -14.1°
Sets 13:55:26 0° 6° (N) 3,725 7.0 -13.6°
